Regional Weather Roundup
Issued by NWS

Home | Current Version | Previous Version | Graphics & Text | Print | Product List | Glossary On
Versions: 1 2 3 4 5 6 7 8 9 10 11 12 13 14 15 16 17 18 19 20 21 22 23 24 25 26 27 28 29 30 31 32 33 34 35 36 37 38 39 40 41 42 43 44 45 46 47 48 49 50
000
ASUS43 KIND 261859
RWRIN

WEATHER ROUNDUP FOR INDIANA
NATIONAL WEATHER SERVICE INDIANAPOLIS IN
300 PM EDT MON SEP 26 2016

NOTE: "FAIR" INDICATES FEW OR NO CLOUDS BELOW 12,000 FEET WITH NO
SIGNIFICANT WEATHER AND/OR OBSTRUCTIONS TO VISIBILITY.

* - STATION DOES NOT REPORT WEATHER SUCH AS PRECIPITATION OR FOG.

+ - STATION NOT QUALITY CONTROLLED BY THE NATIONAL WEATHER SERVICE.
    USE DATA WITH CAUTION...ESPECIALLY DEWPOINT AND RELATIVE
    HUMIDITY OBSERVATIONS.

INZ001>003-010>013-019-020-262000-
NORTHWEST INDIANA

CITY           SKY/WX    TMP DP  RH WIND       PRES   REMARKS
GARY /AIRPORT/ SUNNY     72  34  25 W26G39    29.97F

$$

LMZ046-743>745-262000-
SOUTHERN LAKE MICHIGAN

STATION/POSITION TIME  TEMP    WIND        PRES    WAVE
                       AIR SEA DIR/SP/G            HT
                 (UTC) (F)     (DEG/KT/KT) (MB)    (FT)
BURNS HARBOR     1801   65     260/ 18     1015.2S
MICHIGAN CITY    1800   64     230/ 24/ 25   N/A
5NW MICH CITY    1800   65 66  270/ 17/ 25   N/A     5

$$

INZ004-005-014>016-021>024-262000-
NORTH CENTRAL INDIANA

CITY           SKY/WX    TMP DP  RH WIND       PRES   REMARKS
ELKHART        MOSUNNY  N/A N/A N/A W15G22    29.94F
GOSHEN         LGT RAIN  68  41  37 W21G28    29.95F
SOUTH BEND     SUNNY     67  41  38 W18G28    29.95F

$$

INZ006>009-017-018-025>027-262000-
NORTHEAST INDIANA

CITY           SKY/WX    TMP DP  RH WIND       PRES   REMARKS
ANGOLA *+        N/A     68  61  77 W15       29.95F
FORT WAYNE     MOSUNNY   70  38  31 W14G22    29.98F
KENDALLVILLE + MOSUNNY   67  42  41 W17G23    29.96F

$$

INZ028-029-035-036-043>045-051>053-262000-
WEST CENTRAL INDIANA

CITY           SKY/WX    TMP DP  RH WIND       PRES   REMARKS
CRAWFORDSVL +  SUNNY     69  43  39 W10       30.04F
LAFAYETTE      SUNNY     70  43  37 W14G21    30.01F
TERRE HAUTE    SUNNY     71  40  32 W10       30.07F

$$

INZ030>032-037>040-046>048-054>057-064-065-262000-
CENTRAL INDIANA

CITY           SKY/WX    TMP DP  RH WIND       PRES   REMARKS
COLUMBUS       MOSUNNY   64  55  72 W7        30.07F
INDIANAPOLIS   MOSUNNY   67  47  48 SW14      30.04F
-EAGLE CREEK   MOSUNNY   68  44  42 W12G18    30.04F
MT COMFORT *+  PTSUNNY   66  48  52 W15       30.04F
SHELBYVILLE    CLOUDY    70  51  51 W12       30.04F

$$

INZ033-034-041-042-049-050-058-059-262000-
EAST CENTRAL INDIANA

CITY           SKY/WX    TMP DP  RH WIND       PRES   REMARKS
MUNCIE         CLOUDY    67  46  47 W15G22    30.02F

$$

INZ060-061-067>069-081>083-085>088-262000-
SOUTHWEST INDIANA

CITY           SKY/WX    TMP DP  RH WIND       PRES   REMARKS
EVANSVILLE     PTSUNNY   72  50  45 VRB6      30.10F
HUNTINGBURG *+   N/A     66  48  52 N7        30.10F

$$

INZ062-063-066-070>080-084-089>092-262000-
SOUTH CENTRAL AND SOUTHEAST INDIANA

CITY           SKY/WX    TMP DP  RH WIND       PRES   REMARKS
BLOOMINGTON    CLOUDY    68  51  54 W9        30.07F
MADISON *+     CLOUDY    68  50  52 W7        30.09F
SEYMOUR +      CLOUDY    68  50  52 NW9       30.07F

$$




USA.gov is the U.S. government's official web portal to all federal, state and local government web resources and services.